Casper, WY

6:00 AM MST on December 09, 2019 (GMT -0700)
Natrona County International

Weather History for KCPR - October, 2019

Change the Weather History Date:

Thursday, October 24, 2019

  Actual Average Record
Temperature  
Mean Temperature 33 °F 43 °F  
Max Temperature 45 °F 56 °F 77 °F (1992)
Min Temperature 21 °F 29 °F 13 °F (2001)
Degree Days  
Heating Degree Days 32 22  
Month to date heating degree days 544 449  
Since 1 July heating degree days 715 734  
Cooling Degree Days 0 0  
Month to date cooling degree days 0 0  
Year to date cooling degree days 441 422  
Moisture  
Dew Point 21 °F    
Average Humidity 62    
Maximum Humidity 92    
Minimum Humidity 32    
Precipitation  
Precipitation 0.00 in 0.03 in 0.28 in (1957)
Month to date precipitation 1.01 0.88  
Year to date precipitation 11.71 11.04  
Snow  
Snow 0.00 in 0.20 in - ()
Month to date snowfall 7.6 5.3  
Since 1 July snowfall 7.6 7.1  
Since 1 September snowfall 7.6 7.1  
Snow Depth 0.00 in    
Sea Level Pressure  
Sea Level Pressure 30.39 in    
Wind  
Wind Speed 12 mph (WSW)    
Max Wind Speed 28 mph    
Max Gust Speed 38 mph    
Visibility 10 miles    
Events      
T = Trace of Precipitation, MM = Missing Value Source: NWS Daily Summary

Daily Weather History Graph

Daily Weather History Graph

Search for Another Location

Airport or City:

Astronomy

Oct. 24, 2019 Rise Set
Actual Time 7:29 AM MDT 6:09 PM MDT
Civil Twilight 7:00 AM MDT 6:38 PM MDT
Nautical Twilight 6:27 AM MDT 7:11 PM MDT
Astronomical Twilight 5:55 AM MDT 7:44 PM MDT
Moon 2:54 AM MDT (10/24) 4:46 PM MDT (10/24)
Length of Visible Light 11h 37m
Length of Day
10h 39m
Waning Crescent, 16% of the Moon is Illuminated
Oct 24
Waning Crescent
Oct 27
New
Nov 4
First Quarter
Nov 12
Full
Nov 19
Last Quarter

Hourly Weather History & Observations

Time (MDT) Temp. Windchill Dew Point Humidity Pressure Visibility Wind Dir Wind Speed Gust Speed Precip Events Conditions
12:53 AM 26.1 °F 21.9 °F 23.0 °F 88% 30.46 in 10.0 mi Variable 3.5 mph - N/A   Mostly Cloudy
1:11 AM 26.1 °F - 23.0 °F 88% 30.38 in 10.0 mi Calm Calm - N/A   Overcast
1:53 AM 26.1 °F - 24.1 °F 92% 30.46 in 10.0 mi Calm Calm - N/A   Overcast
2:53 AM 27.0 °F 23.0 °F 24.1 °F 89% 30.46 in 10.0 mi West 3.5 mph - N/A   Overcast
3:53 AM 27.0 °F 20.5 °F 24.1 °F 89% 30.45 in 10.0 mi WSW 5.8 mph - N/A   Overcast
4:53 AM 24.1 °F 14.4 °F 21.9 °F 91% 30.47 in 10.0 mi WSW 9.2 mph - N/A   Clear
5:53 AM 21.0 °F 14.6 °F 19.0 °F 92% 30.49 in 10.0 mi West 4.6 mph - N/A   Clear
6:53 AM 21.9 °F 12.5 °F 19.0 °F 89% 30.47 in 10.0 mi WSW 8.1 mph - N/A   Clear
7:53 AM 23.0 °F 13.9 °F 19.9 °F 88% 30.48 in 10.0 mi WSW 8.1 mph - N/A   Partly Cloudy
8:53 AM 28.9 °F 19.2 °F 24.1 °F 82% 30.48 in 10.0 mi SW 11.5 mph - N/A   Clear
9:53 AM 30.0 °F 18.7 °F 24.1 °F 79% 30.47 in 10.0 mi SW 16.1 mph 23.0 mph N/A   Clear
10:53 AM 33.1 °F 22.2 °F 24.1 °F 70% 30.45 in 10.0 mi SW 17.3 mph - N/A   Clear
11:53 AM 36.0 °F 25.0 °F 24.1 °F 62% 30.41 in 10.0 mi SSW 20.7 mph 27.6 mph N/A   Clear
12:53 PM 39.0 °F 29.0 °F 21.9 °F 50% 30.36 in 10.0 mi SW 20.7 mph 32.2 mph N/A   Clear
1:53 PM 42.1 °F 32.8 °F 21.9 °F 45% 30.31 in 10.0 mi SW 21.9 mph 31.1 mph 0.00 in   Partly Cloudy
2:53 PM 43.0 °F 33.5 °F 21.9 °F 43% 30.28 in 10.0 mi WSW 24.2 mph 32.2 mph 0.00 in   Partly Cloudy
3:53 PM 44.1 °F 35.2 °F 19.9 °F 38% 30.24 in 10.0 mi WSW 23.0 mph 32.2 mph 0.00 in   Clear
4:53 PM 41.0 °F 33.1 °F 14.0 °F 33% 30.28 in 10.0 mi West 15.0 mph - N/A   Mostly Cloudy
5:53 PM 39.9 °F 34.5 °F 17.1 °F 40% 30.30 in 10.0 mi WNW 8.1 mph - N/A   Scattered Clouds
6:53 PM 33.1 °F 26.1 °F 18.0 °F 54% 30.34 in 10.0 mi WSW 8.1 mph - N/A   Clear
7:53 PM 28.9 °F 20.4 °F 19.0 °F 67% 30.37 in 10.0 mi WSW 9.2 mph - N/A   Clear
8:53 PM 28.0 °F 21.7 °F 19.0 °F 69% 30.35 in 10.0 mi SW 5.8 mph - N/A   Clear
9:53 PM 28.9 °F 22.8 °F 19.9 °F 69% 30.35 in 10.0 mi WSW 5.8 mph - N/A   Clear
10:53 PM 28.9 °F 20.4 °F 21.0 °F 72% 30.35 in 10.0 mi WSW 9.2 mph - N/A   Clear
11:53 PM 30.0 °F 23.2 °F 21.0 °F 69% 30.34 in 10.0 mi WSW 6.9 mph - N/A   Clear